Wind_Speed
78 78 78 78 81 83 83 87 87 92 92 95 96 99 100 103 105 106 108 111 114 98 101 93 99 95 75 62 55 54 53 55 54 55 55 58 55 56 55 51 42 51 34
81 83 84 85 86 87 88 91 93 95 100 96 101 104 107 108 110 114 116 116 107 96 90 86 65 43 40 38 38 39 41 43 45 47 46 45 50 49 52 59 53 57 44
84 85 84 84 87 88 88 91 94 97 102 101 104 106 107 109 112 113 107 94 79 85 66 45 25 24 22 22 22 22 24 28 33 36 39 43 45 46 49 56 55 68 64
79 81 83 85 86 87 91 96 99 100 101 102 108 107 107 110 112 100 81 83 75 60 39 23 20 25 23 24 23 24 24 23 23 30 33 38 41 41 48 54 64 68 71
78 81 84 86 91 94 97 100 101 101 105 106 106 107 109 108 91 73 77 63 46 34 26 25 25 29 26 24 24 25 26 27 26 24 28 35 37 40 48 59 72 74 74
83 87 89 94 93 97 99 102 105 105 104 103 105 106 104 77 70 62 56 42 33 32 31 31 31 32 33 34 31 26 28 28 29 28 24 28 36 38 41 69 75 80 77
89 89 89 92 94 96 102 102 104 103 104 102 102 89 76 66 58 50 41 37 34 37 35 33 36 37 37 38 37 34 25 27 28 29 28 23 28 35 41 71 76 79 80
80 85 90 94 96 98 97 96 99 99 98 95 83 70 64 57 50 42 39 36 35 37 37 39 40 42 42 41 38 34 29 27 26 28 28 22 24 28 36 65 74 77 79
85 87 95 93 95 93 96 98 99 100 95 80 65 57 53 49 40 38 36 36 39 40 41 44 47 47 48 44 42 36 33 29 26 28 23 20 19 22 29 37 55 72 78
90 92 92 95 93 95 95 93 99 95 82 59 53 51 48 43 42 42 43 43 45 51 51 52 51 51 49 44 42 38 32 29 25 24 25 19 15 19 22 24 40 53 56
87 88 90 94 94 96 96 97 90 73 60 54 52 47 45 45 43 42 45 46 47 52 52 50 48 47 46 44 42 37 33 30 29 25 26 22 16 15 25 31 35 36 42
88 88 90 92 94 96 87 82 63 54 48 50 49 48 46 47 50 54 51 52 53 53 53 49 47 44 44 43 42 40 38 35 32 30 29 26 20 16 18 29 31 42 37
90 91 93 89 79 79 70 59 48 44 47 48 50 49 47 51 52 54 55 55 53 50 50 50 47 44 44 46 46 47 46 41 37 35 32 31 30 24 23 23 34 34 50
85 81 71 71 69 62 62 51 42 42 47 46 49 46 47 53 54 53 50 48 49 51 52 50 46 48 48 48 47 46 45 45 43 42 40 38 38 38 35 33 34 33 34
89 82 67 68 57 55 47 45 38 38 43 44 50 52 56 56 51 50 49 50 51 49 48 49 51 51 51 51 52 51 52 51 50 48 48 47 46 46 45 42 41 43 41
69 72 66 56 48 43 42 45 50 50 39 44 49 55 58 54 56 52 47 52 53 51 51 52 52 53 57 57 56 54 53 53 54 55 52 49 49 49 51 51 48 46 50
58 54 52 47 43 44 47 47 48 54 54 49 58 60 63 63 59 54 54 54 55 54 53 54 58 59 58 59 58 56 56 59 59 59 58 56 55 55 55 52 51 49 49
45 42 40 44 50 49 46 50 53 54 54 49 54 60 63 62 61 60 61 62 61 61 60 61 62 63 63 63 62 62 62 64 66 65 63 62 62 61 61 61 59 57 54
45 41 36 38 50 52 49 55 62 59 53 57 60 62 62 60 62 64 66 67 65 67 68 68 68 66 66 67 67 67 68 69 71 71 70 70 70 70 71 71 69 65 64
42 37 39 45 50 49 50 53 56 57 60 61 66 68 64 63 64 67 69 69 69 71 74 75 75 75 74 76 77 77 79 80 82 80 80 81 80 80 79 78 79 78 78
39 37 43 48 52 51 50 53 57 60 63 66 67 65 65 66 67 69 72 74 76 78 79 81 82 83 84 85 82 83 83 86 88 89 91 92 92 92 92 90 88 86 86
42 45 46 47 49 50 53 57 62 65 68 71 67 67 70 71 74 76 79 82 84 85 87 88 90 91 93 94 93 92 91 92 96 99 103 102 101 103 103 103 99 95 91
44 45 47 48 51 53 57 61 65 69 70 69 71 73 77 80 82 85 88 90 90 90 92 94 97 99 101 104 106 105 105 105 106 109 112 114 113 113 110 109 107 104 103
44 46 50 52 54 57 61 64 66 68 70 72 75 80 83 86 90 93 94 96 99 101 103 106 108 111 113 115 116 119 121 122 119 111 115 121 123 122 120 117 112 113 111
46 50 53 54 56 60 62 63 65 67 70 75 81 86 92 96 98 101 104 107 109 112 114 118 121 125 128 129 128 127 127 125 118 112 105 108 114 120 120 119 116 114 114
53 53 53 54 58 59 60 64 67 71 76 80 86 91 95 100 103 107 110 114 118 122 127 131 134 135 134 132 129 123 117 110 107 104 97 91 97 102 104 108 109 109 109
Wind_Direction
279 283 286 287 286 290 291 293 292 295 296 298 300 302 300 300 304 306 305 306 304 299 304 308 309 307 302 298 297 295 291 283 275 270 267 262 259 256 246 239 238 243 234
282 283 283 284 288 288 289 294 297 295 297 298 299 302 303 302 303 306 305 303 301 309 309 310 306 306 310 313 309 303 298 291 284 280 271 262 256 245 239 228 223 215 219
281 282 284 285 285 288 292 294 296 297 298 298 299 302 303 301 304 304 303 307 308 313 308 301 307 315 332 333 337 335 320 302 287 273 268 262 252 246 236 226 216 212 215
282 282 283 286 288 290 292 295 297 299 300 299 300 302 304 304 303 305 305 312 310 300 290 290 311 323 328 332 334 342 338 338 313 288 274 260 253 239 228 216 209 210 212
279 280 282 287 289 292 294 296 297 300 301 301 301 301 303 303 303 307 311 305 292 284 281 289 302 313 322 321 330 330 332 335 333 306 285 266 252 238 222 206 206 205 212
280 284 285 289 291 293 296 295 298 301 302 301 301 302 301 301 307 308 301 289 278 276 277 294 304 311 315 320 319 328 329 327 333 334 306 273 256 241 221 205 207 209 214
282 285 286 289 293 294 294 296 299 299 299 300 301 298 299 305 306 296 286 284 284 286 288 295 298 310 316 319 318 318 323 322 326 331 326 294 260 238 225 208 209 211 210
283 282 287 289 291 293 294 297 297 298 298 298 298 302 303 302 300 287 284 287 289 291 297 301 303 304 310 314 313 314 314 319 322 328 337 311 278 239 226 210 210 214 214
282 285 286 290 290 291 294 295 297 299 299 299 300 298 302 300 293 289 290 292 292 295 298 299 300 302 304 307 308 311 309 307 315 316 332 335 295 230 221 216 217 217 220
281 285 287 288 290 291 295 297 297 296 296 292 293 297 294 288 287 290 291 294 295 299 300 297 297 297 300 303 304 303 302 303 301 309 314 323 320 258 249 237 208 217 225
282 283 285 288 290 292 294 296 293 292 294 292 293 294 293 293 291 291 292 293 295 296 298 297 295 296 297 299 298 298 298 296 292 290 293 300 306 280 252 254 225 220 221
279 282 286 290 293 293 294 291 292 292 296 296 296 294 294 295 295 294 293 292 290 294 296 296 297 295 295 293 294 294 294 294 286 286 284 281 276 277 275 243 242 233 228
280 285 289 291 291 290 289 290 292 295 293 295 292 288 291 293 294 296 298 297 296 297 296 298 297 296 296 296 297 297 296 294 288 283 278 278 276 263 261 266 244 244 241
288 288 290 292 289 285 283 279 284 291 290 295 289 287 295 298 294 295 298 298 297 297 295 296 296 296 295 294 294 293 291 289 284 281 277 272 270 271 267 260 252 257 249
285 288 288 288 282 284 278 278 278 279 287 294 294 293 295 294 291 297 295 292 292 291 291 291 292 294 294 294 293 291 290 289 286 283 280 276 270 267 267 265 260 256 250
287 286 283 280 278 275 271 279 281 272 273 286 287 290 290 291 294 294 295 296 294 292 291 290 290 289 290 290 288 287 288 288 287 286 283 279 274 268 269 269 264 256 252
280 280 284 280 276 275 268 277 274 277 279 285 286 294 295 295 293 294 298 297 294 292 291 287 286 287 287 287 286 286 285 285 283 282 279 276 276 277 275 270 267 263 254
268 267 273 279 281 281 275 277 274 281 282 285 290 294 296 296 294 296 299 300 297 295 291 291 291 291 289 287 285 282 282 283 283 282 278 276 277 276 276 277 273 267 261
268 271 270 267 275 274 279 274 273 282 288 291 291 291 291 290 290 292 296 296 294 292 292 292 291 288 285 284 281 278 279 279 279 278 277 275 274 274 274 273 270 264 262
272 267 265 263 272 278 277 278 281 283 286 288 287 292 295 294 295 295 294 293 292 291 291 289 288 286 285 285 284 282 280 280 280 278 276 276 277 274 271 269 268 267 266
272 267 269 269 275 274 277 283 286 287 287 288 293 293 293 293 292 291 291 291 290 289 288 287 285 285 285 284 281 280 279 278 278 279 281 279 275 273 271 267 263 261 262
274 272 273 276 280 282 285 289 288 288 290 293 292 292 293 291 289 290 291 292 293 291 288 287 287 287 287 287 286 284 283 282 281 280 277 276 275 272 269 267 265 260 259
280 284 284 283 284 284 284 285 288 291 293 294 294 292 293 292 291 292 293 295 294 292 290 290 290 290 289 289 287 284 283 282 281 280 278 276 276 274 271 267 266 262 259
285 284 282 281 282 285 288 291 293 295 297 298 297 297 296 295 295 296 298 297 296 296 296 294 294 293 293 293 290 287 285 284 283 278 277 276 276 273 270 267 262 260 258
287 286 287 290 292 291 293 295 296 296 297 296 297 299 301 301 301 301 301 300 299 298 298 297 296 295 295 294 293 289 286 285 282 277 272 271 269 270 269 266 262 259 257
289 289 291 293 294 297 297 297 298 297 296 298 299 300 300 299 299 299 299 299 299 300 300 299 298 296 294 294 292 291 288 286 283 281 277 271 268 266 265 262 261 259 257
Height
10885 10882 10880 10878 10874 10871 10868 10865 10861 10858 10852 10847 10841 10837 10831 10823 10815 10806 10796 10785 10774 10767 10760 10751 10738 10726 10717 10710 10702 10698 10691 10688 10687 10690 10691 10692 10695 10698 10711 10719 10727 10730 10739
10876 10874 10872 10867 10862 10861 10857 10852 10848 10845 10840 10835 10828 10822 10816 10806 10798 10787 10776 10767 10757 10749 10741 10730 10716 10708 10703 10696 10693 10687 10683 10679 10676 10675 10674 10673 10672 10678 10688 10699 10708 10713 10721
10868 10865 10859 10856 10852 10850 10845 10841 10836 10832 10827 10821 10814 10807 10800 10791 10781 10770 10760 10752 10742 10733 10724 10718 10712 10706 10699 10694 10689 10683 10678 10674 10670 10666 10662 10659 10661 10664 10675 10685 10692 10697 10704
10859 10854 10848 10845 10842 10838 10833 10827 10821 10817 10811 10806 10799 10792 10784 10776 10768 10757 10747 10740 10729 10722 10715 10709 10704 10703 10696 10693 10687 10682 10677 10671 10663 10657 10656 10653 10650 10653 10659 10668 10678 10685 10695
10848 10842 10838 10835 10831 10825 10821 10814 10807 10803 10797 10791 10785 10777 10771 10762 10752 10744 10737 10729 10721 10717 10712 10705 10699 10697 10694 10690 10685 10681 10674 10665 10659 10653 10650 10644 10644 10645 10649 10655 10662 10672 10680
10837 10832 10827 10823 10818 10813 10809 10801 10795 10790 10785 10777 10770 10763 10756 10746 10741 10734 10727 10721 10717 10712 10707 10701 10696 10692 10690 10686 10683 10678 10672 10663 10657 10650 10646 10642 10638 10637 10641 10646 10651 10660 10667
10825 10821 10816 10811 10807 10802 10796 10789 10785 10779 10773 10765 10756 10747 10741 10737 10733 10727 10723 10720 10713 10710 10704 10697 10691 10687 10684 10681 10678 10675 10670 10663 10656 10649 10641 10636 10634 10635 10633 10637 10643 10651 10658
10813 10808 10805 10801 10797 10791 10784 10779 10773 10767 10758 10748 10741 10737 10732 10729 10723 10719 10716 10713 10708 10705 10699 10692 10686 10682 10678 10674 10673 10671 10667 10662 10655 10649 10641 10634 10628 10630 10630 10634 10638 10642 10652
10798 10795 10794 10789 10783 10777 10773 10768 10761 10755 10745 10735 10728 10724 10721 10721 10717 10714 10710 10708 10703 10701 10694 10688 10682 10677 10673 10670 10668 10667 10664 10659 10653 10648 10644 10637 10631 10631 10631 10633 10635 10639 10645
10786 10786 10783 10776 10771 10766 10761 10756 10748 10739 10730 10724 10719 10716 10712 10709 10709 10709 10704 10699 10697 10693 10688 10682 10676 10671 10666 10663 10660 10660 10660 10657 10650 10646 10642 10639 10635 10634 10632 10632 10633 10635 10639
10776 10776 10772 10764 10761 10753 10747 10742 10732 10724 10716 10713 10709 10705 10704 10700 10698 10698 10696 10693 10689 10683 10678 10673 10668 10663 10660 10656 10653 10652 10653 10653 10647 10643 10639 10637 10635 10633 10633 10633 10634 10632 10632
10767 10766 10759 10752 10749 10740 10733 10727 10719 10716 10709 10705 10701 10697 10694 10689 10688 10688 10684 10682 10680 10675 10670 10664 10660 10655 10651 10648 10645 10643 10644 10646 10642 10639 10636 10634 10632 10631 10631 10633 10634 10634 10632
10759 10755 10746 10740 10735 10727 10721 10713 10711 10704 10698 10697 10693 10689 10687 10681 10678 10674 10670 10667 10665 10661 10657 10653 10650 10647 10643 10640 10637 10635 10633 10635 10636 10633 10630 10628 10627 10627 10626 10625 10629 10630 10632
10741 10741 10731 10722 10716 10709 10709 10702 10701 10693 10688 10687 10683 10679 10674 10672 10669 10664 10661 10657 10655 10650 10647 10644 10641 10637 10633 10630 10627 10625 10623 10622 10623 10623 10622 10620 10619 10617 10619 10620 10619 10619 10621
10729 10725 10722 10714 10707 10703 10698 10691 10688 10682 10676 10674 10672 10668 10665 10660 10655 10654 10653 10649 10646 10642 10638 10634 10630 10626 10623 10619 10615 10612 10610 10608 10609 10609 10609 10607 10607 10607 10606 10608 10609 10609 10609
10714 10708 10705 10704 10696 10695 10692 10681 10679 10676 10671 10669 10664 10661 10654 10648 10644 10640 10639 10635 10632 10629 10627 10624 10621 10617 10613 10610 10605 10602 10597 10594 10592 10591 10593 10594 10593 10593 10593 10592 10594 10596 10597
10703 10697 10688 10691 10687 10681 10676 10673 10669 10667 10664 10659 10654 10646 10641 10635 10630 10627 10625 10622 10617 10615 10615 10611 10608 10605 10601 10596 10594 10589 10586 10583 10580 10578 10576 10575 10576 10577 10577 10578 10577 10577 10580
10695 10693 10692 10683 10672 10669 10669 10662 10657 10656 10654 10648 10642 10638 10630 10621 10613 10610 10607 10607 10603 10599 10597 10595 10593 10589 10585 10583 10580 10575 10572 10569 10565 10562 10560 10560 10560 10561 10561 10562 10563 10562 10563
10688 10687 10685 10678 10668 10660 10658 10652 10648 10644 10639 10633 10630 10626 10621 10613 10605 10600 10597 10592 10587 10582 10579 10577 10574 10571 10567 10563 10562 10559 10555 10552 10548 10546 10544 10542 10543 10543 10543 10543 10543 10544 10545
10682 10681 10677 10667 10653 10654 10651 10644 10638 10633 10626 10622 10616 10612 10606 10598 10593 10587 10582 10577 10573 10568 10563 10559 10556 10553 10550 10548 10545 10540 10536 10530 10525 10524 10522 10520 10522 10522 10522 10521 10521 10521 10522
10672 10670 10663 10655 10649 10646 10641 10634 10625 10618 10612 10608 10606 10598 10590 10583 10578 10572 10566 10561 10556 10551 10545 10538 10533 10529 10524 10521 10525 10523 10519 10512 10506 10501 10497 10497 10495 10493 10494 10496 10496 10497 10498
10658 10655 10650 10645 10640 10634 10628 10620 10611 10604 10600 10593 10587 10580 10575 10568 10562 10555 10548 10542 10538 10532 10523 10516 10510 10507 10500 10494 10492 10492 10495 10489 10480 10475 10467 10466 10465 10462 10459 10460 10465 10469 10472
10644 10640 10636 10630 10625 10622 10617 10610 10602 10592 10584 10576 10570 10563 10555 10548 10541 10534 10528 10523 10515 10506 10499 10491 10483 10475 10470 10462 10455 10451 10451 10453 10452 10443 10431 10428 10425 10422 10420 10422 10425 10431 10437
10632 10627 10622 10619 10617 10612 10605 10596 10586 10576 10568 10559 10549 10540 10532 10523 10515 10509 10501 10492 10481 10472 10463 10453 10445 10435 10426 10421 10415 10406 10399 10394 10398 10406 10400 10387 10377 10372 10370 10374 10382 10386 10394
10620 10614 10609 10606 10602 10595 10590 10581 10572 10564 10554 10544 10533 10521 10509 10496 10488 10477 10469 10460 10449 10437 10427 10417 10406 10393 10381 10372 10366 10357 10351 10341 10336 10337 10354 10349 10338 10324 10320 10324 10331 10337 10343
10607 10604 10601 10597 10588 10583 10576 10567 10557 10547 10538 10527 10516 10504 10491 10478 10468 10456 10447 10434 10419 10403 10390 10376 10364 10352 10340 10328 10314 10304 10297 10293 10288 10284 10290 10305 10292 10288 10282 10277 10284 10289 10295